Location: ?????????
(53.2086°N, 54.0693°E)
Time: 21:19:38
(UTC+00:00)

Ariane Rocket - Pass Details

Date: 08 December 2019
Orbit: 761 x 769 km, 98.7° (Epoch: 28 January)

Event Time Altitude Azimuth Distance (km) Brightness Sun altitude
Exits shadow 14:43:05 42° 37° (NE) 1,091 3.4 -22.1°
Drops below altitude 10° 14:47:04 10° 353° (N) 2,310 5.5 -22.6°
Sets 14:49:27 0° 348° (NNW) 3,239 6.3 -23.0°
